Regional Weather Roundup
Issued by NWS

Home | Current Version | Previous Version | Graphics & Text | Print | Product List | Glossary On
Versions: 1 2 3 4 5 6 7 8 9 10 11 12 13 14 15 16 17 18 19 20 21 22 23 24 25 26 27 28 29 30 31 32 33 34 35 36 37 38 39 40 41 42 43 44 45 46 47 48 49 50
000
ASUS43 KBIS 282020
RWRND

NORTH DAKOTA REGIONAL WEATHER ROUNDUP
NATIONAL WEATHER SERVICE BISMARCK ND
200 PM CST SAT FEB 28 2015

NOTE: "FAIR" INDICATES FEW OR NO CLOUDS BELOW 12,000 FEET WITH NO
SIGNIFICANT WEATHER AND/OR OBSTRUCTIONS TO VISIBILITY.


NDZ001>003-009>011-017-282100-
NORTHWEST NORTH DAKOTA

CITY           SKY/WX    TMP DP  RH WIND       PRES   REMARKS
WILLISTON      PTSUNNY   15   2  56 NW16      30.17  WCI  -1
MINOT          SUNNY     10   0  63 W22       30.11  WCI -10
MINOT AFB      MOSUNNY    9   3  75 NW20G25   30.12S WCI -10
$$

NDZ018>021-031>035-040>046-282100-
SOUTHWEST NORTH DAKOTA

CITY           SKY/WX    TMP DP  RH WIND       PRES   REMARKS
BISMARCK       PTSUNNY   21   6  52 NW17      30.13  WCI   7
DICKINSON      PTSUNNY   19   3  49 NW22      30.08  WCI   2
GARRISON         N/A     10   3  73 NW18      30.12F WCI  -8
HETTINGER ARPT MOSUNNY   19   3  49 NW23      30.11  WCI   2
$$

NDZ004>008-012>016-024-026-027-054-282100-
NORTHEAST NORTH DAKOTA

CITY           SKY/WX    TMP DP  RH WIND       PRES   REMARKS
GRAND FORKS    CLOUDY    21  12  68 S18       30.12  WCI   6
GRND FRKS AFB  CLOUDY    22  11  61 SW18      30.11F WCI   8
DEVILS LAKE    MOSUNNY   18  10  73 W15       30.06S WCI   3
$$

NDZ022-023-025-028>030-036>039-047>053-282100-
SOUTHEAST NORTH DAKOTA

CITY           SKY/WX    TMP DP  RH WIND       PRES   REMARKS
FARGO          CLOUDY    26  13  57 S22G30    30.17  WCI  12
JAMESTOWN      CLOUDY    22  12  65 W12       30.08  WCI  10
$$




USA.gov is the U.S. government's official web portal to all federal, state and local government web resources and services.